| time (UTC) | temp F | wind direction | speed knots | gust knots | rain 1hr in | rain 24hr in | rain mn in | humidity % | barometer mb |
| 20260906221336 | 98 | 101 | 5.2 | 7.0 | 0.00 | 0.00 | 0.00 | 37 | 1011.7 |
| 20260906220831 | 98 | 87 | 7.0 | 13.0 | 0.00 | 0.00 | 0.00 | 36 | 1011.8 |
| 20260906220327 | 98 | 101 | 3.5 | 9.6 | 0.00 | 0.00 | 0.00 | 36 | 1011.7 |
| 20260906215825 | 98 | 89 | 7.8 | 10.4 | 0.00 | 0.00 | 0.00 | 36 | 1011.8 |
| 20260906215321 | 98 | 105 | 2.6 | 7.0 | 0.00 | 0.00 | 0.00 | 36 | 1011.8 |
| 20260906214818 | 98 | 118 | 4.3 | 9.6 | 0.00 | 0.00 | 0.00 | 36 | 1011.9 |
| 20260906214313 | 98 | 82 | 5.2 | 10.4 | 0.00 | 0.00 | 0.00 | 36 | 1011.9 |
| 20260906213813 | 98 | 99 | 3.5 | 9.6 | 0.00 | 0.00 | 0.00 | 37 | 1012.0 |
| 20260906213313 | 98 | 105 | 6.1 | 12.2 | 0.00 | 0.00 | 0.00 | 36 | 1012.2 |
| 20260906212810 | 98 | 117 | 9.6 | 11.3 | 0.00 | 0.00 | 0.00 | 36 | 1012.0 |
| 20260906212306 | 99 | 147 | 8.7 | 11.3 | 0.00 | 0.00 | 0.00 | 36 | 1012.0 |
| 20260906211805 | 98 | 101 | 7.0 | 9.6 | 0.00 | 0.00 | 0.00 | 36 | 1012.1 |
| 20260906211300 | 98 | 132 | 4.3 | 11.3 | 0.00 | 0.00 | 0.00 | 36 | 1012.3 |
| 20260906210756 | 97 | 124 | 5.2 | 10.4 | 0.00 | 0.00 | 0.00 | 37 | 1012.4 |
| 20260906210256 | 98 | 79 | 6.1 | 12.2 | 0.00 | 0.00 | 0.00 | 37 | 1012.5 |
| 20260906205756 | 98 | 91 | 2.6 | 8.7 | 0.00 | 0.00 | 0.00 | 37 | 1012.4 |
| 20260906205252 | 97 | 119 | 4.3 | 8.7 | 0.00 | 0.00 | 0.00 | 37 | 1012.3 |
| 20260906204748 | 97 | 104 | 5.2 | 9.6 | 0.00 | 0.00 | 0.00 | 37 | 1012.5 |
| 20260906204247 | 97 | 105 | 7.0 | 11.3 | 0.00 | 0.00 | 0.00 | 38 | 1012.5 |
| 20260906203746 | 97 | 93 | 7.8 | 12.2 | 0.00 | 0.00 | 0.00 | 37 | 1012.6 |
| 20260906203242 | 98 | 127 | 7.8 | 10.4 | 0.00 | 0.00 | 0.00 | 37 | 1012.7 |
| 20260906202738 | 97 | 79 | 5.2 | 7.8 | 0.00 | 0.00 | 0.00 | 38 | 1012.7 |
| 20260906202238 | 98 | 119 | 7.8 | 10.4 | 0.00 | 0.00 | 0.00 | 37 | 1012.6 |
| 20260906201733 | 97 | 114 | 11.3 | 11.3 | 0.00 | 0.00 | 0.00 | 37 | 1012.8 |
| 20260906201232 | 96 | 115 | 5.2 | 11.3 | 0.00 | 0.00 | 0.00 | 38 | 1012.9 |
| 20260906200728 | 97 | 100 | 6.1 | 13.9 | 0.00 | 0.00 | 0.00 | 37 | 1013.0 |
| 20260906200224 | 98 | 154 | 7.8 | 9.6 | 0.00 | 0.00 | 0.00 | 35 | 1012.9 |
| 20260906195719 | 96 | 141 | 4.3 | 6.1 | 0.00 | 0.00 | 0.00 | 38 | 1012.9 |
| 20260906195216 | 96 | 111 | 7.0 | 11.3 | 0.00 | 0.00 | 0.00 | 38 | 1012.9 |
| 20260906194711 | 96 | 94 | 4.3 | 8.7 | 0.00 | 0.00 | 0.00 | 38 | 1013.1 |
| 20260906194207 | 96 | 112 | 7.8 | 11.3 | 0.00 | 0.00 | 0.00 | 38 | 1013.2 |
| 20260906193702 | 96 | 96 | 3.5 | 13.0 | 0.00 | 0.00 | 0.00 | 38 | 1013.1 |
| 20260906193156 | 96 | 112 | 5.2 | 12.2 | 0.00 | 0.00 | 0.00 | 39 | 1012.9 |
| 20260906192652 | 97 | 84 | 9.6 | 12.2 | 0.00 | 0.00 | 0.00 | 35 | 1013.2 |
| 20260906192152 | 96 | 104 | 3.5 | 8.7 | 0.00 | 0.00 | 0.00 | 37 | 1013.2 |
| 20260906191646 | 96 | 97 | 4.3 | 5.2 | 0.00 | 0.00 | 0.00 | 39 | 1013.5 |
| 20260906191146 | 97 | 100 | 9.6 | 13.0 | 0.00 | 0.00 | 0.00 | 38 | 1013.2 |
| 20260906190640 | 96 | 124 | 9.6 | 11.3 | 0.00 | 0.00 | 0.00 | 38 | 1013.4 |
| 20260906190135 | 96 | 87 | 7.0 | 9.6 | 0.00 | 0.00 | 0.00 | 37 | 1013.5 |
| 20260906185634 | 97 | 115 | 2.6 | 5.2 | 0.00 | 0.00 | 0.00 | 36 | 1013.3 |
| 20260906185133 | 96 | 265 | 3.5 | 4.3 | 0.00 | 0.00 | 0.00 | 37 | 1013.5 |
| 20260906184628 | 96 | 97 | 5.2 | 10.4 | 0.00 | 0.00 | 0.00 | 39 | 1013.5 |
| 20260906184124 | 96 | 95 | 4.3 | 6.1 | 0.00 | 0.00 | 0.00 | 38 | 1013.6 |
| 20260906183619 | 96 | 134 | 5.2 | 13.9 | 0.00 | 0.00 | 0.00 | 37 | 1013.7 |
| 20260906183115 | 96 | 112 | 2.6 | 8.7 | 0.00 | 0.00 | 0.00 | 38 | 1013.7 |
| 20260906182610 | 95 | 120 | 6.1 | 7.8 | 0.00 | 0.00 | 0.00 | 40 | 1013.8 |
| 20260906182106 | 96 | 97 | 3.5 | 5.2 | 0.00 | 0.00 | 0.00 | 38 | 1013.9 |
| 20260906181607 | 95 | 147 | 7.8 | 9.6 | 0.00 | 0.00 | 0.00 | 39 | 1013.9 |
| 20260906181102 | 95 | 73 | 10.4 | 11.3 | 0.00 | 0.00 | 0.00 | 40 | 1014.0 |
| 20260906180557 | 95 | 108 | 5.2 | 9.6 | 0.00 | 0.00 | 0.00 | 40 | 1014.1 |
| 20260906180056 | 95 | 99 | 4.3 | 9.6 | 0.00 | 0.00 | 0.00 | 40 | 1014.1 |
| 20260906175555 | 95 | 138 | 1.7 | 6.1 | 0.00 | 0.00 | 0.00 | 40 | 1014.0 |
| 20260906175050 | 94 | 105 | 9.6 | 12.2 | 0.00 | 0.00 | 0.00 | 40 | 1014.4 |
| 20260906174548 | 94 | 116 | 4.3 | 13.0 | 0.00 | 0.00 | 0.00 | 42 | 1014.4 |
| 20260906174044 | 95 | 103 | 7.0 | 7.8 | 0.00 | 0.00 | 0.00 | 41 | 1014.6 |
| 20260906173538 | 95 | 123 | 6.1 | 9.6 | 0.00 | 0.00 | 0.00 | 43 | 1014.6 |
| 20260906173035 | 94 | 77 | 5.2 | 7.8 | 0.00 | 0.00 | 0.00 | 43 | 1014.8 |
| 20260906172528 | 95 | 104 | 7.8 | 9.6 | 0.00 | 0.00 | 0.00 | 42 | 1014.7 |
| 20260906172024 | 95 | 83 | 5.2 | 11.3 | 0.00 | 0.00 | 0.00 | 42 | 1014.9 |
| 20260906171519 | 95 | 142 | 4.3 | 10.4 | 0.00 | 0.00 | 0.00 | 41 | 1015.1 |
| 20260906171014 | 95 | 113 | 5.2 | 9.6 | 0.00 | 0.00 | 0.00 | 42 | 1015.0 |
| 20260906170510 | 94 | 117 | 6.1 | 7.0 | 0.00 | 0.00 | 0.00 | 45 | 1015.0 |
| 20260906170009 | 94 | 138 | 7.8 | 11.3 | 0.00 | 0.00 | 0.00 | 45 | 1015.3 |
| 20260906165506 | 93 | 141 | 6.1 | 7.0 | 0.00 | 0.00 | 0.00 | 46 | 1015.2 |
| 20260906165001 | 95 | 154 | 7.8 | 9.6 | 0.00 | 0.00 | 0.00 | 44 | 1015.1 |
| 20260906164500 | 94 | 124 | 8.7 | 11.3 | 0.00 | 0.00 | 0.00 | 44 | 1015.1 |
| 20260906163956 | 93 | 159 | 5.2 | 6.1 | 0.00 | 0.00 | 0.00 | 46 | 1015.2 |
| 20260906163451 | 93 | 101 | 5.2 | 7.8 | 0.00 | 0.00 | 0.00 | 47 | 1015.4 |
| 20260906162950 | 93 | 120 | 7.0 | 10.4 | 0.00 | 0.00 | 0.00 | 47 | 1015.3 |
| 20260906162448 | 92 | 150 | 4.3 | 8.7 | 0.00 | 0.00 | 0.00 | 47 | 1015.2 |
| 20260906161944 | 93 | 128 | 11.3 | 11.3 | 0.00 | 0.00 | 0.00 | 43 | 1015.0 |
| 20260906161444 | 93 | 71 | 6.1 | 7.0 | 0.00 | 0.00 | 0.00 | 47 | 1015.2 |
| 20260906160943 | 92 | 85 | 5.2 | 7.0 | 0.00 | 0.00 | 0.00 | 49 | 1015.4 |
| 20260906160436 | 92 | 77 | 4.3 | 6.1 | 0.00 | 0.00 | 0.00 | 49 | 1015.3 |
| 20260906155935 | 93 | 76 | 3.5 | 7.0 | 0.00 | 0.00 | 0.00 | 48 | 1015.3 |
| 20260906155434 | 91 | 89 | 2.6 | 4.3 | 0.00 | 0.00 | 0.00 | 51 | 1015.1 |
| 20260906154930 | 91 | 103 | 2.6 | 8.7 | 0.00 | 0.00 | 0.00 | 51 | 1015.0 |
| 20260906154425 | 93 | 74 | 4.3 | 7.8 | 0.00 | 0.00 | 0.00 | 49 | 1015.3 |
| 20260906153923 | 92 | 121 | 2.6 | 4.3 | 0.00 | 0.00 | 0.00 | 50 | 1015.1 |
| 20260906153422 | 92 | 78 | 1.7 | 5.2 | 0.00 | 0.00 | 0.00 | 51 | 1015.3 |
| 20260906152918 | 92 | 238 | 1.7 | 1.7 | 0.00 | 0.00 | 0.00 | 52 | 1015.0 |
| 20260906152413 | 92 | 93 | 2.6 | 4.3 | 0.00 | 0.00 | 0.00 | 52 | 1015.1 |
| 20260906151911 | 93 | 54 | 2.6 | 3.5 | 0.00 | 0.00 | 0.00 | 51 | 1015.4 |
| 20260906151408 | 91 | 107 | 1.7 | 3.5 | 0.00 | 0.00 | 0.00 | 54 | 1015.0 |
| 20260906150903 | 92 | 108 | 2.6 | 3.5 | 0.00 | 0.00 | 0.00 | 53 | 1014.9 |
| 20260906150358 | 90 | 154 | 1.7 | 4.3 | 0.00 | 0.00 | 0.00 | 55 | 1015.1 |
| 20260906145858 | 89 | 144 | 2.6 | 3.5 | 0.00 | 0.00 | 0.00 | 58 | 1015.0 |
| 20260906145356 | 89 | 142 | 2.6 | 4.3 | 0.00 | 0.00 | 0.00 | 57 | 1015.0 |
| 20260906144851 | 89 | 133 | 3.5 | 5.2 | 0.00 | 0.00 | 0.00 | 59 | 1014.7 |
| 20260906144346 | 88 | 111 | 1.7 | 5.2 | 0.00 | 0.00 | 0.00 | 60 | 1014.9 |
| 20260906143846 | 87 | 105 | 1.7 | 3.5 | 0.00 | 0.00 | 0.00 | 62 | 1014.9 |
| 20260906143342 | 87 | 85 | 3.5 | 3.5 | 0.00 | 0.00 | 0.00 | 61 | 1015.0 |
| 20260906142838 | 87 | 94 | 3.5 | 4.3 | 0.00 | 0.00 | 0.00 | 62 | 1014.8 |
| 20260906142333 | 86 | 126 | 2.6 | 5.2 | 0.00 | 0.00 | 0.00 | 63 | 1015.0 |
| 20260906141833 | 85 | 119 | 3.5 | 4.3 | 0.00 | 0.00 | 0.00 | 65 | 1014.9 |
| 20260906141327 | 85 | 86 | 3.5 | 4.3 | 0.00 | 0.00 | 0.00 | 66 | 1014.8 |
| 20260906140826 | 85 | 127 | 2.6 | 4.3 | 0.00 | 0.00 | 0.00 | 66 | 1015.0 |
| 20260906140321 | 84 | 173 | 2.6 | 5.2 | 0.00 | 0.00 | 0.00 | 67 | 1015.1 |
| 20260906135819 | 84 | 131 | 5.2 | 6.1 | 0.00 | 0.00 | 0.00 | 68 | 1015.0 |
| 20260906135314 | 83 | 118 | 5.2 | 6.1 | 0.00 | 0.00 | 0.00 | 69 | 1015.0 |
| 20260906134809 | 82 | 117 | 4.3 | 6.1 | 0.00 | 0.00 | 0.00 | 70 | 1015.0 |
| 20260906134304 | 82 | 106 | 2.6 | 5.2 | 0.00 | 0.00 | 0.00 | 70 | 1014.9 |
| 20260906133800 | 82 | 116 | 2.6 | 5.2 | 0.00 | 0.00 | 0.00 | 71 | 1014.8 |
| 20260906133255 | 81 | 91 | 2.6 | 5.2 | 0.00 | 0.00 | 0.00 | 72 | 1014.8 |
| 20260906132750 | 81 | 95 | 4.3 | 4.3 | 0.00 | 0.00 | 0.00 | 73 | 1014.7 |
| 20260906132246 | 80 | 97 | 5.2 | 5.2 | 0.00 | 0.00 | 0.00 | 74 | 1014.7 |
| 20260906131741 | 80 | 123 | 3.5 | 4.3 | 0.00 | 0.00 | 0.00 | 75 | 1014.9 |
| 20260906131236 | 80 | 101 | 3.5 | 3.5 | 0.00 | 0.00 | 0.00 | 76 | 1014.7 |
| 20260906130732 | 80 | 109 | 3.5 | 5.2 | 0.00 | 0.00 | 0.00 | 76 | 1014.7 |
| 20260906130227 | 79 | 84 | 3.5 | 3.5 | 0.00 | 0.00 | 0.00 | 76 | 1014.7 |
| 20260906125725 | 79 | 131 | 2.6 | 3.5 | 0.00 | 0.00 | 0.00 | 77 | 1014.7 |
| 20260906125223 | 78 | 109 | 3.5 | 3.5 | 0.00 | 0.00 | 0.00 | 78 | 1014.5 |
| 20260906124724 | 77 | 122 | 2.6 | 4.3 | 0.00 | 0.00 | 0.00 | 79 | 1014.7 |
| 20260906124220 | 77 | 94 | 2.6 | 2.6 | 0.00 | 0.00 | 0.00 | 80 | 1014.5 |
| 20260906123718 | 76 | 102 | 2.6 | 3.5 | 0.00 | 0.00 | 0.00 | 82 | 1014.4 |
| 20260906123214 | 75 | 111 | 3.5 | 3.5 | 0.00 | 0.00 | 0.00 | 85 | 1014.2 |
| 20260906122713 | 74 | 116 | 1.7 | 1.7 | 0.00 | 0.00 | 0.00 | 86 | 1014.1 |
| 20260906122208 | 74 | 115 | 0.9 | 1.7 | 0.00 | 0.00 | 0.00 | 86 | 1014.4 |
| 20260906121705 | 74 | 117 | 1.7 | 1.7 | 0.00 | 0.00 | 0.00 | 85 | 1014.2 |
| 20260906121201 | 74 | 101 | 1.7 | 2.6 | 0.00 | 0.00 | 0.00 | 85 | 1014.2 |
| 20260906120656 | 74 | 122 | 3.5 | 4.3 | 0.00 | 0.00 | 0.00 | 85 | 1014.2 |
| 20260906120153 | 74 | 133 | 3.5 | 3.5 | 0.00 | 0.00 | 0.00 | 86 | 1014.0 |
| 20260906115648 | 74 | 126 | 3.5 | 3.5 | 0.00 | 0.00 | 0.00 | 86 | 1013.9 |
| 20260906115143 | 74 | 126 | 3.5 | 3.5 | 0.00 | 0.00 | 0.00 | 87 | 1013.7 |
| 20260906114642 | 74 | 92 | 1.7 | 2.6 | 0.00 | 0.00 | 0.00 | 86 | 1013.7 |
| 20260906114137 | 74 | 127 | 3.5 | 3.5 | 0.00 | 0.00 | 0.00 | 86 | 1013.6 |
| 20260906113638 | 74 | 97 | 1.7 | 2.6 | 0.00 | 0.00 | 0.00 | 86 | 1013.7 |
| 20260906113137 | 74 | 119 | 1.7 | 2.6 | 0.00 | 0.00 | 0.00 | 85 | 1013.7 |
| 20260906112637 | 74 | 114 | 1.7 | 1.7 | 0.00 | 0.00 | 0.00 | 85 | 1013.7 |
| 20260906112134 | 75 | 104 | 0.9 | 1.7 | 0.00 | 0.00 | 0.00 | 84 | 1013.7 |
| 20260906111633 | 75 | 107 | 0.9 | 1.7 | 0.00 | 0.00 | 0.00 | 84 | 1013.6 |
| 20260906111128 | 75 | 150 | 1.7 | 2.6 | 0.00 | 0.00 | 0.00 | 84 | 1013.6 |
| 20260906110624 | 75 | 155 | 0.9 | 2.6 | 0.00 | 0.00 | 0.00 | 85 | 1013.5 |
| 20260906110124 | 76 | 159 | 1.7 | 1.7 | 0.00 | 0.00 | 0.00 | 82 | 1013.5 |
| 20260906105618 | 76 | 116 | 2.6 | 2.6 | 0.00 | 0.00 | 0.00 | 82 | 1013.5 |
| 20260906105115 | 75 | 112 | 3.5 | 3.5 | 0.00 | 0.00 | 0.00 | 83 | 1013.5 |
| 20260906104614 | 75 | 144 | 1.7 | 2.6 | 0.00 | 0.00 | 0.00 | 83 | 1013.4 |
| 20260906104108 | 75 | 152 | 1.7 | 2.6 | 0.00 | 0.00 | 0.00 | 82 | 1013.4 |
| 20260906103606 | 76 | 136 | 1.7 | 2.6 | 0.00 | 0.00 | 0.00 | 81 | 1013.5 |
| 20260906103102 | 76 | 118 | 0.9 | 2.6 | 0.00 | 0.00 | 0.00 | 81 | 1013.1 |
| 20260906102601 | 76 | 120 | 2.6 | 3.5 | 0.00 | 0.00 | 0.00 | 82 | 1013.4 |
| 20260906102057 | 76 | 137 | 2.6 | 3.5 | 0.00 | 0.00 | 0.00 | 82 | 1013.4 |
| 20260906101557 | 76 | 98 | 1.7 | 2.6 | 0.00 | 0.00 | 0.00 | 82 | 1013.5 |
| 20260906101051 | 75 | 128 | 1.7 | 2.6 | 0.00 | 0.00 | 0.00 | 83 | 1013.5 |
| 20260906100547 | 75 | 124 | 1.7 | 2.6 | 0.00 | 0.00 | 0.00 | 83 | 1013.3 |
| 20260906100048 | 75 | 146 | 1.7 | 1.7 | 0.00 | 0.00 | 0.00 | 83 | 1013.3 |
| 20260906095547 | 76 | 123 | 0.9 | 1.7 | 0.00 | 0.00 | 0.00 | 81 | 1013.4 |
| 20260906095043 | 76 | 161 | 1.7 | 1.7 | 0.00 | 0.00 | 0.00 | 80 | 1013.3 |
| 20260906094542 | 77 | 103 | 1.7 | 2.6 | 0.00 | 0.00 | 0.00 | 79 | 1013.2 |
| 20260906094038 | 77 | 122 | 3.5 | 3.5 | 0.00 | 0.00 | 0.00 | 79 | 1013.1 |
| 20260906093533 | 77 | 126 | 3.5 | 3.5 | 0.00 | 0.00 | 0.00 | 80 | 1013.2 |
| 20260906093028 | 77 | 130 | 1.7 | 2.6 | 0.00 | 0.00 | 0.00 | 80 | 1013.1 |
| 20260906092523 | 77 | 138 | 1.7 | 1.7 | 0.00 | 0.00 | 0.00 | 79 | 1013.0 |
| 20260906092018 | 77 | 111 | 1.7 | 2.6 | 0.00 | 0.00 | 0.00 | 79 | 1012.9 |
| 20260906091514 | 77 | 110 | 1.7 | 1.7 | 0.00 | 0.00 | 0.00 | 78 | 1012.8 |
| 20260906091011 | 78 | 122 | 1.7 | 2.6 | 0.00 | 0.00 | 0.00 | 76 | 1012.8 |
| 20260906090510 | 78 | 113 | 0.9 | 1.7 | 0.00 | 0.00 | 0.00 | 76 | 1012.9 |
| 20260906090011 | 79 | 121 | 2.6 | 2.6 | 0.00 | 0.00 | 0.00 | 75 | 1013.0 |
| 20260906085510 | 79 | 128 | 2.6 | 2.6 | 0.00 | 0.00 | 0.00 | 75 | 1012.8 |
| 20260906085010 | 79 | 113 | 1.7 | 1.7 | 0.00 | 0.00 | 0.00 | 75 | 1012.7 |
| 20260906084510 | 79 | 125 | 1.7 | 1.7 | 0.00 | 0.00 | 0.00 | 74 | 1012.8 |
| 20260906084009 | 79 | 181 | 1.7 | 1.7 | 0.00 | 0.00 | 0.00 | 74 | 1012.8 |
| 20260906083505 | 80 | 199 | 0.9 | 1.7 | 0.00 | 0.00 | 0.00 | 74 | 1012.8 |
| 20260906083004 | 80 | 173 | 1.7 | 2.6 | 0.00 | 0.00 | 0.00 | 74 | 1012.9 |
| 20260906082459 | 80 | 113 | 1.7 | 1.7 | 0.00 | 0.00 | 0.00 | 73 | 1012.6 |
| 20260906081955 | 80 | 132 | 2.6 | 3.5 | 0.00 | 0.00 | 0.00 | 73 | 1012.7 |
| 20260906081450 | 80 | 116 | 1.7 | 2.6 | 0.00 | 0.00 | 0.00 | 73 | 1012.8 |
| 20260906080946 | 80 | 121 | 1.7 | 3.5 | 0.00 | 0.00 | 0.00 | 72 | 1012.8 |
| 20260906080443 | 80 | 154 | 1.7 | 3.5 | 0.00 | 0.00 | 0.00 | 72 | 1013.0 |
| 20260906075943 | 81 | 119 | 2.6 | 4.3 | 0.00 | 0.00 | 0.00 | 72 | 1013.1 |
| 20260906075438 | 81 | 121 | 1.7 | 3.5 | 0.00 | 0.00 | 0.00 | 72 | 1013.3 |
| 20260906074933 | 81 | 141 | 3.5 | 4.3 | 0.00 | 0.00 | 0.00 | 71 | 1013.0 |
| 20260906074433 | 81 | 124 | 3.5 | 5.2 | 0.00 | 0.00 | 0.00 | 71 | 1013.1 |
| 20260906073931 | 81 | 128 | 1.7 | 3.5 | 0.00 | 0.00 | 0.00 | 71 | 1013.2 |
| 20260906073426 | 81 | 99 | 2.6 | 4.3 | 0.00 | 0.00 | 0.00 | 70 | 1013.2 |
| 20260906072923 | 81 | 132 | 5.2 | 5.2 | 0.00 | 0.00 | 0.00 | 70 | 1013.2 |
| 20260906072418 | 82 | 131 | 3.5 | 3.5 | 0.00 | 0.00 | 0.00 | 70 | 1013.2 |
| 20260906071914 | 81 | 120 | 2.6 | 3.5 | 0.00 | 0.00 | 0.00 | 70 | 1013.1 |
| 20260906071409 | 81 | 131 | 2.6 | 4.3 | 0.00 | 0.00 | 0.00 | 70 | 1013.1 |
| 20260906070905 | 81 | 179 | 0.9 | 6.1 | 0.00 | 0.00 | 0.00 | 70 | 1012.9 |
| 20260906070401 | 81 | 120 | 3.5 | 4.3 | 0.00 | 0.00 | 0.00 | 72 | 1013.0 |
| 20260906065856 | 80 | 120 | 1.7 | 2.6 | 0.00 | 0.00 | 0.00 | 72 | 1013.0 |
| 20260906065350 | 81 | 201 | 0.9 | 2.6 | 0.00 | 0.00 | 0.00 | 71 | 1013.1 |
| 20260906064846 | 81 | 120 | 2.6 | 4.3 | 0.00 | 0.00 | 0.00 | 71 | 1013.2 |
| 20260906064343 | 81 | 132 | 1.7 | 2.6 | 0.00 | 0.00 | 0.00 | 70 | 1013.4 |
| 20260906063842 | 81 | 123 | 1.7 | 3.5 | 0.00 | 0.00 | 0.00 | 70 | 1013.4 |
| 20260906063338 | 82 | 119 | 3.5 | 3.5 | 0.00 | 0.00 | 0.00 | 69 | 1013.2 |
| 20260906062833 | 82 | 134 | 2.6 | 4.3 | 0.00 | 0.00 | 0.00 | 68 | 1013.4 |
| 20260906062332 | 82 | 134 | 3.5 | 4.3 | 0.00 | 0.00 | 0.00 | 68 | 1013.3 |
| 20260906061827 | 82 | 142 | 1.7 | 3.5 | 0.00 | 0.00 | 0.00 | 68 | 1013.3 |
| 20260906061324 | 82 | 113 | 1.7 | 2.6 | 0.00 | 0.00 | 0.00 | 68 | 1013.2 |
| 20260906060818 | 82 | 177 | 0.9 | 1.7 | 0.00 | 0.00 | 0.00 | 68 | 1013.4 |
| 20260906060316 | 82 | 133 | 1.7 | 3.5 | 0.00 | 0.00 | 0.00 | 68 | 1013.5 |
| 20260906055812 | 82 | 129 | 1.7 | 3.5 | 0.00 | 0.00 | 0.00 | 67 | 1013.7 |
| 20260906055307 | 82 | 101 | 0.9 | 3.5 | 0.00 | 0.00 | 0.00 | 67 | 1013.7 |
| 20260906054802 | 82 | 140 | 2.6 | 3.5 | 0.00 | 0.00 | 0.00 | 67 | 1013.6 |
| 20260906054258 | 82 | 140 | 1.7 | 3.5 | 0.00 | 0.00 | 0.00 | 66 | 1013.6 |
| 20260906053754 | 82 | 121 | 2.6 | 4.3 | 0.00 | 0.00 | 0.00 | 66 | 1013.4 |
| 20260906053250 | 83 | 129 | 4.3 | 4.3 | 0.00 | 0.00 | 0.00 | 65 | 1013.8 |
| 20260906052744 | 83 | 125 | 2.6 | 3.5 | 0.00 | 0.00 | 0.00 | 65 | 1013.7 |
| 20260906052240 | 83 | 138 | 2.6 | 2.6 | 0.00 | 0.00 | 0.00 | 64 | 1013.8 |
| 20260906051738 | 83 | 128 | 2.6 | 3.5 | 0.00 | 0.00 | 0.00 | 64 | 1013.6 |
| 20260906051237 | 83 | 115 | 3.5 | 3.5 | 0.00 | 0.00 | 0.00 | 64 | 1013.5 |
| 20260906050732 | 83 | 155 | 0.9 | 1.7 | 0.00 | 0.00 | 0.00 | 63 | 1013.4 |
| 20260906050227 | 83 | 155 | 0.9 | 1.7 | 0.00 | 0.00 | 0.00 | 63 | 1013.6 |
| 20260906045726 | 83 | 135 | 1.7 | 1.7 | 0.00 | 0.00 | 0.00 | 62 | 1013.6 |
| 20260906045221 | 83 | 144 | 1.7 | 3.5 | 0.00 | 0.00 | 0.00 | 61 | 1013.5 |
| 20260906044717 | 84 | 128 | 2.6 | 2.6 | 0.00 | 0.00 | 0.00 | 61 | 1013.6 |
| 20260906044212 | 84 | 123 | 3.5 | 4.3 | 0.00 | 0.00 | 0.00 | 61 | 1013.6 |
| 20260906043708 | 84 | 133 | 3.5 | 4.3 | 0.00 | 0.00 | 0.00 | 60 | 1013.2 |
| 20260906043204 | 84 | 125 | 3.5 | 4.3 | 0.00 | 0.00 | 0.00 | 59 | 1013.4 |
| 20260906042703 | 84 | 130 | 2.6 | 3.5 | 0.00 | 0.00 | 0.00 | 59 | 1013.6 |
| 20260906042203 | 84 | 143 | 1.7 | 4.3 | 0.00 | 0.00 | 0.00 | 59 | 1013.3 |
| 20260906041658 | 84 | 114 | 3.5 | 4.3 | 0.00 | 0.00 | 0.00 | 59 | 1013.6 |
| 20260906041154 | 84 | 125 | 1.7 | 3.5 | 0.00 | 0.00 | 0.00 | 59 | 1013.4 |
| 20260906040649 | 84 | 130 | 2.6 | 3.5 | 0.00 | 0.00 | 0.00 | 59 | 1013.4 |
| 20260906040144 | 84 | 112 | 2.6 | 3.5 | 0.00 | 0.00 | 0.00 | 59 | 1013.5 |
| 20260906035645 | 84 | 134 | 1.7 | 2.6 | 0.00 | 0.00 | 0.00 | 57 | 1013.5 |
| 20260906035140 | 85 | 129 | 1.7 | 2.6 | 0.00 | 0.00 | 0.00 | 56 | 1013.4 |
| 20260906034636 | 85 | 121 | 1.7 | 1.7 | 0.00 | 0.00 | 0.00 | 55 | 1013.5 |
| 20260906034136 | 86 | 133 | 1.7 | 2.6 | 0.00 | 0.00 | 0.00 | 55 | 1013.5 |
| 20260906033631 | 86 | 135 | 1.7 | 2.6 | 0.00 | 0.00 | 0.00 | 54 | 1013.5 |
| 20260906033126 | 86 | 132 | 2.6 | 4.3 | 0.00 | 0.00 | 0.00 | 54 | 1013.2 |
| 20260906032623 | 87 | 137 | 2.6 | 3.5 | 0.00 | 0.00 | 0.00 | 53 | 1013.4 |
| 20260906032122 | 87 | 140 | 3.5 | 5.2 | 0.00 | 0.00 | 0.00 | 53 | 1013.2 |
| 20260906031618 | 87 | 131 | 2.6 | 3.5 | 0.00 | 0.00 | 0.00 | 52 | 1013.1 |
| 20260906031113 | 87 | 110 | 1.7 | 3.5 | 0.00 | 0.00 | 0.00 | 52 | 1013.2 |
| 20260906030612 | 87 | 130 | 5.2 | 5.2 | 0.00 | 0.00 | 0.00 | 52 | 1013.1 |
| 20260906030108 | 87 | 133 | 6.1 | 7.0 | 0.00 | 0.00 | 0.00 | 51 | 1013.1 |
| 20260906025607 | 87 | 123 | 3.5 | 3.5 | 0.00 | 0.00 | 0.00 | 51 | 1013.2 |
| 20260906025106 | 88 | 127 | 2.6 | 6.1 | 0.00 | 0.00 | 0.00 | 50 | 1012.9 |
| 20260906024601 | 88 | 152 | 3.5 | 5.2 | 0.00 | 0.00 | 0.00 | 50 | 1013.0 |
| 20260906024055 | 88 | 138 | 3.5 | 5.2 | 0.00 | 0.00 | 0.00 | 50 | 1012.9 |
| 20260906023551 | 88 | 126 | 3.5 | 4.3 | 0.00 | 0.00 | 0.00 | 49 | 1012.8 |
| 20260906023046 | 88 | 139 | 2.6 | 4.3 | 0.00 | 0.00 | 0.00 | 48 | 1012.8 |
| 20260906022541 | 88 | 138 | 3.5 | 4.3 | 0.00 | 0.00 | 0.00 | 48 | 1012.7 |
| 20260906022036 | 88 | 120 | 2.6 | 2.6 | 0.00 | 0.00 | 0.00 | 48 | 1012.5 |
| 20260906021532 | 88 | 135 | 1.7 | 3.5 | 0.00 | 0.00 | 0.00 | 47 | 1012.6 |
| 20260906021031 | 89 | 122 | 3.5 | 4.3 | 0.00 | 0.00 | 0.00 | 47 | 1012.6 |
| 20260906020530 | 89 | 133 | 2.6 | 3.5 | 0.00 | 0.00 | 0.00 | 46 | 1012.6 |
| 20260906020030 | 88 | 132 | 2.6 | 5.2 | 0.00 | 0.00 | 0.00 | 47 | 1012.3 |
| 20260906015530 | 88 | 154 | 1.7 | 1.7 | 0.00 | 0.00 | 0.00 | 47 | 1012.2 |
| 20260906015030 | 88 | 155 | 1.7 | 1.7 | 0.00 | 0.00 | 0.00 | 47 | 1012.1 |
| 20260906014525 | 88 | 154 | 1.7 | 1.7 | 0.00 | 0.00 | 0.00 | 47 | 1012.0 |
| 20260906014021 | 89 | 155 | 0.9 | 1.7 | 0.00 | 0.00 | 0.00 | 46 | 1012.0 |
| 20260906013516 | 89 | 156 | 0.9 | 1.7 | 0.00 | 0.00 | 0.00 | 45 | 1012.0 |
| 20260906013011 | 90 | 128 | 1.7 | 2.6 | 0.00 | 0.00 | 0.00 | 44 | 1012.0 |
| 20260906012507 | 90 | 123 | 1.7 | 2.6 | 0.00 | 0.00 | 0.00 | 44 | 1011.7 |
| 20260906012005 | 90 | 123 | 2.6 | 2.6 | 0.00 | 0.00 | 0.00 | 44 | 1011.8 |
| 20260906011502 | 91 | 130 | 2.6 | 3.5 | 0.00 | 0.00 | 0.00 | 43 | 1011.7 |
| 20260906010956 | 91 | 122 | 2.6 | 2.6 | 0.00 | 0.00 | 0.00 | 43 | 1011.6 |
| 20260906010452 | 91 | 135 | 1.7 | 3.5 | 0.00 | 0.00 | 0.00 | 42 | 1011.7 |
| 20260906005948 | 92 | 119 | 2.6 | 3.5 | 0.00 | 0.00 | 0.00 | 42 | 1011.6 |
| 20260906005447 | 92 | 127 | 2.6 | 3.5 | 0.00 | 0.00 | 0.00 | 41 | 1011.5 |
| 20260906004945 | 93 | 133 | 2.6 | 3.5 | 0.00 | 0.00 | 0.00 | 40 | 1011.7 |
| 20260906004440 | 93 | 126 | 1.7 | 3.5 | 0.00 | 0.00 | 0.00 | 39 | 1011.6 |
| 20260906003936 | 94 | 130 | 2.6 | 3.5 | 0.00 | 0.00 | 0.00 | 39 | 1011.6 |
| 20260906003436 | 94 | 134 | 3.5 | 3.5 | 0.00 | 0.00 | 0.00 | 38 | 1011.7 |
| 20260906002931 | 95 | 135 | 5.2 | 5.2 | 0.00 | 0.00 | 0.00 | 38 | 1011.6 |
| 20260906002431 | 95 | 140 | 2.6 | 4.3 | 0.00 | 0.00 | 0.00 | 38 | 1011.6 |
| 20260906001926 | 95 | 134 | 3.5 | 5.2 | 0.00 | 0.00 | 0.00 | 37 | 1011.6 |
| 20260906001422 | 96 | 127 | 6.1 | 9.6 | 0.00 | 0.00 | 0.00 | 37 | 1011.4 |
| 20260906000917 | 96 | 126 | 5.2 | 9.6 | 0.00 | 0.00 | 0.00 | 36 | 1011.3 |
| 20260906000412 | 96 | 144 | 3.5 | 5.2 | 0.00 | 0.00 | 0.00 | 36 | 1011.3 |
| 20260905235907 | 96 | 127 | 7.0 | 7.8 | 0.00 | 0.00 | 0.00 | 36 | 1011.4 |
| 20260905235401 | 97 | 119 | 3.5 | 6.1 | 0.00 | 0.00 | 0.00 | 35 | 1011.3 |
| 20260905234856 | 97 | 134 | 5.2 | 8.7 | 0.00 | 0.00 | 0.00 | 35 | 1011.1 |
| 20260905234351 | 97 | 137 | 3.5 | 5.2 | 0.00 | 0.00 | 0.00 | 35 | 1011.4 |
| 20260905233846 | 97 | 126 | 5.2 | 7.8 | 0.00 | 0.00 | 0.00 | 35 | 1011.4 |
| 20260905233341 | 98 | 101 | 3.5 | 7.8 | 0.00 | 0.00 | 0.00 | 35 | 1011.3 |
| 20260905232840 | 98 | 150 | 5.2 | 7.0 | 0.00 | 0.00 | 0.00 | 34 | 1011.1 |
| 20260905232337 | 98 | 149 | 3.5 | 5.2 | 0.00 | 0.00 | 0.00 | 34 | 1011.0 |
| 20260905231832 | 98 | 132 | 6.1 | 7.8 | 0.00 | 0.00 | 0.00 | 33 | 1011.3 |
| 20260905231327 | 98 | 114 | 3.5 | 11.3 | 0.00 | 0.00 | 0.00 | 33 | 1011.0 |
| 20260905230824 | 98 | 145 | 4.3 | 5.2 | 0.00 | 0.00 | 0.00 | 34 | 1010.9 |
| 20260905230321 | 98 | 110 | 6.1 | 10.4 | 0.00 | 0.00 | 0.00 | 33 | 1011.3 |
| 20260905225821 | 97 | 164 | 1.7 | 9.6 | 0.00 | 0.00 | 0.00 | 34 | 1011.1 |
| 20260905225316 | 98 | 140 | 10.4 | 11.3 | 0.00 | 0.00 | 0.00 | 33 | 1011.0 |
| 20260905224816 | 98 | 125 | 4.3 | 9.6 | 0.00 | 0.00 | 0.00 | 33 | 1011.4 |
| 20260905224311 | 98 | 110 | 4.3 | 10.4 | 0.00 | 0.00 | 0.00 | 33 | 1010.8 |
| 20260905223806 | 98 | 78 | 5.2 | 7.8 | 0.00 | 0.00 | 0.00 | 32 | 1011.1 |
| 20260905223304 | 98 | 113 | 4.3 | 7.0 | 0.00 | 0.00 | 0.00 | 33 | 1011.0 |
| 20260905222759 | 99 | 111 | 4.3 | 8.7 | 0.00 | 0.00 | 0.00 | 33 | 1011.3 |
| 20260905222257 | 99 | 114 | 2.6 | 6.1 | 0.00 | 0.00 | 0.00 | 33 | 1011.1 |
| 20260905221754 | 98 | 149 | 4.3 | 8.7 | 0.00 | 0.00 | 0.00 | 34 | 1011.5 |